DELTA 1 DEB

Satellite information

Favourite Embed

Satellite Type and Status

DEBRISIN ORBIT

Key statistics

Satellite DELTA 1 DEB at a glance.

Uptime

18935

Days in orbit

Revolutions

≈ 12.4

Per day

Orbit

SSO

Sun Synchronous Orbit

Inclination

102.1

Latest

Satellite identification and parameters

Extended collection of information and parameters for DELTA 1 DEB.

Object identification

Identified? True

Debris? True

Object name: DELTA 1 DEB

International designator: 1973-086AA

Object number (NORAD): 7034

Object ID (CCSDS): 7034

Country: UNITED STATES OF AMERICA (US)

Current information (Y/N): Y

RCS size: SMALL

Orbital parameters

Period: 115.772 minutes

Inclination: 102.0862 deg

SMA: 7868.593 km

Apoapsis: 1502.931 km

Periapsis: 1477.985 km

RAAN: 227.762 deg

Eccentricy: 0.00158514

Argument of periapsis: 172.7596 deg

Mean anomaly: 306.0227 deg

Mean motion: 12.43818901 rev/day

Mean motion (dot): -0.00000007 rev/day2

B* drag term: 0.00027857809 1/REarth

Two-line elements (TLE)

Creation date: Sept. 8, 2025, 6:18 p.m.

Reference frame: TEME

Reference center: EARTH

Epoch: Sept. 8, 2025, 12:25 p.m. UTC

TLE line 0: 0 DELTA 1 DEB

TLE line 1: 1 07034U 73086AA 25251.51766439 -.00000007 00000-0 27858-3 0 9995

TLE line 2: 2 07034 102.0862 227.7620 0015851 172.7596 306.0227 12.43818901350902

Live tracking on map

Real-time ground track for satellite DELTA 1 DEB.

In-orbit conjunctions

A list of the most updated potential collisions computed for object DELTA 1 DEB.

Target Orbit TCA Probability of collision Miss distance Type
COSMOS 2353 LEO 2025-07-04 23:14:05 0.0001105203 279.0 (m) PAYLOAD

Associated space launch

Meteorological satellite using radiometric imaging

DELTA 1 DEB was lifted into orbit during the mission ‘Delta 0300 | NOAA 3’, on board a Delta 0300 space rocket.

The launch took place on Nov. 6, 1973, 5:02 p.m. from Space Launch Complex 2W.

For more information about the launch, click the button.

Launch to space Delta 0300 | NOAA 3
Delta 0300 | NOAA 3

Agency: N/A

Status: Launch Successful

Launch date: Nov. 6, 1973, 5:02 p.m. UTC

Rocket: Delta 0300

Launch pad: Space Launch Complex 2W

Location: Vandenberg SFB, CA, USA

...

Latest news about this satellite

There are no fresh news available about this satellite. Check back as we update our databases every day.


Newsletter sign-up

Weekly statistics, charts and insights to help you stay on top of the space industry.